Regional Weather Roundup
Issued by NWS

Home | Current Version | Previous Version | Graphics & Text | Print | Product List | Glossary Off
Versions: 1 2 3 4 5 6 7 8 9 10 11 12 13 14 15 16 17 18 19 20 21 22 23 24 25 26 27 28 29 30 31 32 33 34 35 36 37 38 39 40 41 42 43 44 45 46 47 48 49 50

000
ASUS43 KDMX 210201
RWRIA

WEATHER ROUNDUP FOR IOWA
NATIONAL WEATHER SERVICE DES MOINES IA
800 PM CST TUE FEB 20 2018

NOTE: "FAIR" INDICATES FEW OR NO CLOUDS BELOW 12,000 FEET WITH NO
SIGNIFICANT WEATHER AND/OR OBSTRUCTIONS TO VISIBILITY.

* - THESE STATIONS ARE NOT NWS STATIONS...THUS NOT UNDER NWS
QUALITY CONTROL.  THEY ALSO DO NOT REPORT WEATHER SUCH
AS PRECIPITATION OR FOG.

IAZ001>003-012>014-020>022-031>034-043>046-210300-
   NORTHWEST IOWA

CITY           SKY/WX    TMP DP  RH WIND       PRES   REMARKS
CARROLL *      CLOUDY    14   9  79 NW17G26   30.30R WCI  -3
CHEROKEE *     CLOUDY    11   7  83 NW7       30.33R WCI   0
DENISON *      MOCLDY    12   9  85 NW14      30.33S WCI  -3
LE MARS *      CLEAR     10   3  72 NW12      30.35R WCI  -4
ORANGE CITY *  CLEAR      9   5  85 NW10      30.32R WCI  -6
SHELDON *      CLEAR      9   3  78 NW10      30.30R WCI  -6
SIOUX CITY     CLEAR     11   4  73 NW13      30.36R WCI  -4
SPENCER        MIX PCPN  10   5  80 NW10      30.30R WCI  -4
STORM LAKE *   CLOUDY    10   7  85 NW14G21   30.29R WCI  -5
$$

IAZ055>058-069>071-079>083-090>094-210300-
   SOUTHWEST IOWA

CITY           SKY/WX    TMP DP  RH WIND       PRES   REMARKS
ATLANTIC *     CLOUDY    16  10  79 N15       30.32R WCI   1
AUDUBON *      CLOUDY    14  10  85 NW12      30.30R WCI   0
CLARINDA *     CLOUDY    18  14  86 N13       30.35R WCI   4
COUNCIL BLFS * FLURRIES  14  12  92 NW14G21   30.32R WCI  -1
CRESTON *      MOCLDY    16  12  86 NW17      30.29R WCI   0
HARLAN  *      PTCLDY    14  10  85 N15       30.35R WCI  -1
LAMONI         CLOUDY    19  13  77 N14       30.26R WCI   6
RED OAK *      CLOUDY    18  10  73 NW12G20   30.34R WCI   5
SHENANDOAH *   CLOUDY    18  12  79 N13       30.35R WCI   4
$$

IAZ047>049-059>061-072>074-084-210300-
   CENTRAL IOWA

CITY           SKY/WX    TMP DP  RH WIND       PRES   REMARKS
AMES           CLOUDY    18  12  77 NW14      30.28R WCI   4
ANKENY *       MOCLDY    18  12  79 NW15      30.30R WCI   3
BOONE *        CLOUDY    16  12  86 MISG      30.27R
CHARITON *     CLOUDY    19  18  93 NW16      30.26R WCI   5
DES MOINES     FLURRIES  19  12  74 NW14G24   30.29R WCI   6
GRINNELL*      CLOUDY    21  17  84 NW12      30.25R WCI   9
KNOXVILLE *    CLOUDY    21  16  79 NW15G22   30.25R WCI   8
MARSHALLTOWN   CLOUDY    19  13  77 NW20      30.24R WCI   3
NEWTON *       CLOUDY    19  16  86 NW18G25   30.27R WCI   4
PELLA *        CLOUDY    21  17  82 NW10      30.28R WCI  10
$$

IAZ004>006-015-016-023>025-035-036-210300-
   NORTH CENTRAL IOWA

CITY           SKY/WX    TMP DP  RH WIND       PRES   REMARKS
CLARION *      CLOUDY    14  14 100 NW18G25   30.27R WCI  -3
ESTHERVILLE    CLOUDY    10   4  76 NW14      30.28R WCI  -6
FORT DODGE *   CLOUDY    14   8  77 NW10G16   30.28R WCI   1
MASON CITY     CLOUDY    13   7  77 NW25      30.24R WCI  -7
FOREST CITY *  FAIR      14  10  85 NW12      30.25R WCI   0
WEBSTER CITY * CLOUDY    16   9  73 NW21      30.25R WCI  -2
IOWA FALLS *   FAIR      17  13  82 NW14      30.26R WCI   3
$$

IAZ007>011-017>019-026>030-037>042-050>054-066-210300-
   NORTHEAST IOWA

CITY           SKY/WX    TMP DP  RH WIND       PRES   REMARKS
CEDAR RAPIDS   MOCLDY    22  16  78 NW21      30.19R WCI   6
CHARLES CITY * CLOUDY    16  14  93 NW17G23   30.23R WCI   0
CLINTON *      FAIR      28  24  85 NW22        N/A  WCI  14
DECORAH *      MOCLDY    18  12  79 NW14G23   30.18R WCI   4
DUBUQUE        MOCLDY    24  18  77 NW15      30.13S WCI  11
MONTICELLO *   CLOUDY    23  19  86 NW16G25   30.17S WCI  10
OELWEIN *      CLOUDY    19  19 100 NW22      30.20R WCI   3
WATERLOO       FAIR      17  12  80 NW16      30.23R WCI   2
$$

IAZ064-065-067-068-078-210300-
   EAST CENTRAL IOWA

CITY           SKY/WX    TMP DP  RH WIND       PRES   REMARKS
DAVENPORT      FAIR      29  22  75 NW17G26   30.17R WCI  17
IOWA CITY      CLOUDY    26  17  68 NW17      30.22R WCI  13
MT. PLEASANT * CLOUDY    27  21  80 NW15G23   30.20R WCI  15
MUSCATINE *    MOCLDY    27  19  74 NW17G24   30.22R WCI  14
QUAD CITIES    CLOUDY    29  23  78 NW16      30.16R WCI  17
$$

IAZ062-063-075>077-085>089-095>099-210300-
   SOUTHEAST IOWA

CITY           SKY/WX    TMP DP  RH WIND       PRES   REMARKS
BURLINGTON     CLOUDY    27  22  81 NW12G21   30.18R WCI  17
FAIRFIELD *    CLOUDY    25  18  74 NW18G25   30.22R WCI  11
FORT MADISON * CLOUDY    27  23  86 NW13G21   30.21R WCI  16
KEOKUK *       CLOUDY    27  25  93 NW10      30.21R WCI  17
OSKALOOSA *    CLOUDY    23  19  85 NW12      30.24R WCI  12
OTTUMWA        CLOUDY    23  17  78 NW18      30.23R WCI   9
WASHINGTON *   CLOUDY    25  23  93 NW17G25   30.23R WCI  11
$$

ABBREVIATIONS USED IN REMARKS
   TC - TEMPERATURES IN CELSIUS
  WCI - WIND CHILL INDEX
   HX - HEAT INDEX
  VSB - VISIBILITY
$$





USA.gov is the U.S. government's official web portal to all federal, state and local government web resources and services.